Location: Helensbirgh
(56.0153°N, 4.7348°W)
Time: 11:54:16
(UTC+00:00)

Envisat - Pass Details

Date: 22 October 2019
Orbit: 764 x 766 km, 98.1° (Epoch: 17 November)

Event Time Altitude Azimuth Distance (km) Brightness Sun altitude
Rises 18:57:46 0° 161° (SSE) 3,225 6.1 -8.4°
Reaches altitude 10° 19:00:04 10° 161° (SSE) 2,303 5.4 -8.7°
Maximum altitude 19:05:09 87° 73° (ENE) 776 3.0 -9.5°
Drops below altitude 10° 19:10:17 10° 345° (NNW) 2,318 5.6 -10.2°
Sets 19:12:36 0° 345° (NNW) 3,248 6.4 -10.5°
